Aquasco, MD (20608)

2:14 PM EDT on August 22, 2014 (GMT -0400)
Hidden Valley | Change Station
CLOSE
Current Station
Personal Weather Station
Location: Waldorf, MD
Elevation: 174 ft
Nearby Weather Stations

Elev 174 ft 38.56 °N, 76.79 °W | Updated 8 minutes ago

Scattered Clouds
Scattered Clouds
78.6 °F
Feels Like 82 °F
N
0.0
Wind Variable Wind from East
Gusts 0.0 mph

Today
High -- | Low -- °F
--% Chance of Precip.
Yesterday
High -- | Low -- °F
Precip. -- in
6:27 AM 7:51 PM
Waning Crescent, 7% visible
Pressure 29.99 in
Visibility 10.0 miles
Clouds Few 1600 ft
Scattered Clouds 3500 ft
Heat Index 82 °F
Dew Point 74 °F
Humidity 85%
Rainfall 0.00 in
Snow Depth Not available.
UV 8 out of 12
Pollen 8.60 out of 12
Air Quality Not available.
Flu Activity Not available.
SPECI KADW 221802Z AUTO 31002KT 10SM FEW016 SCT035 25/22 A2999 RMK AO2

More Conditions Fewer Conditions

Pressure 29.99 in
Visibility 10.0 miles
Clouds Few 1600 ft
Scattered Clouds 3500 ft
Heat Index 82 °F
Dew Point 74 °F
Humidity 85%
Rainfall 0.00 in
Snow Depth Not available.
UV 8 out of 12
Pollen 8.60 out of 12
Air Quality Not available.
Flu Activity Not available.
SPECI KADW 221802Z AUTO 31002KT 10SM FEW016 SCT035 25/22 A2999 RMK AO2

More Conditions Fewer Conditions

10-Day Weather Forecast

Almanac

Astronomy

Aug. 22, 2014 Rise Set
Actual Time 6:27 AM EDT 7:51 PM EDT
Civil Twilight 5:59 AM EDT 8:19 PM EDT
Nautical Twilight 5:26 AM EDT 8:52 PM EDT
Astronomical Twilight 4:50 AM EDT 9:27 PM EDT
Moon 3:48 AM EDT 5:58 PM EDT
Length of Visible Light 14h 19m
Length of Day
13h 24m
Tomorrow will be 2m 18s shorter.
Waning Crescent, 7% of the Moon is Illuminated
Today
Waning Crescent
Aug 25
New
Sep 2
First Quarter
Sep 8
Full
Sep 15
Last Quarter

Today's Extremes

State Highs State Lows

Community

WunderPhotos

Upload Photos

1,746,214 photos uploaded!

WunderBlogs® & News

Nearby

Snow Depth

Station Depth Elevation
No new snow has been reported.

Earthquake Activity

City Distance Mag. Time & Date
No recent earthquake activity has been reported nearby.
Minimum magnitude displayed is 2.5.

Coastal Water Temperatures

Place Temperature
Solomons Island, MD 80.1 °F
Cambridge, MD 79.0 °F

Nearby Weather Stations